Location: Kosice
(0.0000°N, 21.2500°E)
Time: 05:40:36
(UTC+01:00)

Cosmos 1809 Rocket - Pass Details

Date: 24 January 2021
Orbit: 941 x 963 km, 82.5° (Epoch: 04 March)

Event Time Altitude Azimuth Distance (km) Brightness Sun altitude
Rises 18:34:48 0° 176° (S) 3,604 7.7 -11.2°
Reaches altitude 10° 18:37:20 10° 172° (S) 2,659 6.9 -11.8°
Maximum altitude 18:43:18 59° 93° (E) 1,082 4.5 -13.2°
Drops below altitude 10° 18:49:15 10° 15° (NNE) 2,659 6.5 -14.6°
Sets 18:51:46 0° 11° (NNE) 3,605 7.2 -15.2°
